Weather in Kropachevo

Russia / Chelyabinsk Oblast     55°00′38″N   57°59′03″E
temp.,
°C
wind,
m/s
gust,
m/s
humid.,
%
clouds,
%
prec.,
mm/h
press.,
hPa
HPBL,
m
11 may, tue
tue1123:00+12ese34550 0.0 102459
02:00+10se11660 0.0 102411
05:00+9se11685 0.0 102510
08:00+13ese12587 0.0 1026166
11:00+18ene12405 0.0 1026844
14:00+20n3229100 0.0 10261539
17:00+20n3230100 0.0 10261049
20:00+17n2245100 0.0 102711
12 may, wed
wed1223:00+13e115093 0.0 102810
02:00+11sse11565 0.0 102910
05:00+10sse11615 0.0 103010
08:00+14sse11520 0.0 1030123
11:00+20nne10380 0.0 1029606
14:00+22nne22275 0.0 10291534
17:00+23n11284 0.0 10281369
20:00+19e11460 0.0 102811
13 may, thu
thu1323:00+14w11585 0.0 102910
02:00+13ssw22635 0.0 102910
05:00+11ssw11680 0.0 102910
08:00+16s005911 0.0 1029130
11:00+21nne22484 0.0 1029633
14:00+23nne22405 0.0 10281633
17:00+24ene22395 0.0 10271542
20:00+21ese225310 0.0 102611
14 may, fri
fri1423:00+17se11600 0.0 102711
02:00+15sse11680 0.0 102811
05:00+13sse11720 0.0 102810
08:00+18s12600 0.0 1028146
11:00+23wnw22450 0.0 1027828
14:00+26wnw34370 0.0 10262258
17:00+25w55360 0.0 10261965
20:00+20w34510 0.0 102661
15 may, sat
sat1523:00+15s22550 0.0 102611
02:00+14s22575 0.0 102611
05:00+13s22605 0.0 102611
08:00+19ssw22525 0.0 1026144
11:00+24w23360 0.0 10251074
14:00+26wnw44320 0.0 10232110
17:00+26w44320 0.0 10232209
20:00+21w22505 0.0 102229